Location: Calgary
(51.0833°N, 114.0833°W)
Time: 16:50:23
(UTC-07:00)

Envisat - Visible Passes

Search period start: 15 February 2019 00:00
Search period end: 25 February 2019 00:00
Orbit: 764 x 766 km, 98.2° (Epoch: 15 February)

Date Brightness Start Highest point End Pass type
(mag) Time Alt. Az. Time Alt. Az. Time Alt. Az.
15 Feb 6.0 07:02:38 10° NE 07:06:16 19° E 07:09:54 10° SE visible
15 Feb 3.4 18:21:47 10° SE 18:26:33 42° ENE 18:31:19 10° N visible
15 Feb 4.8 20:01:09 10° SSW 20:05:41 32° W 20:10:16 10° NNW visible
16 Feb 3.5 19:23:42 10° S 19:28:44 64° WSW 19:33:48 10° NNW visible
17 Feb 3.0 18:46:57 10° SSE 18:51:59 67° ENE 18:57:02 10° N visible
17 Feb 5.6 20:27:44 10° SW 20:31:29 20° W 20:35:15 10° NW visible
18 Feb 6.1 06:51:50 10° NE 06:54:55 16° E 06:57:59 10° SE visible
18 Feb 4.4 19:49:39 10° SSW 19:54:24 39° W 19:59:11 10° NNW visible
19 Feb 3.2 19:12:25 10° S 19:17:30 78° WSW 19:22:37 10° NNW visible
19 Feb 6.1 20:55:16 10° WSW 20:57:24 13° W 20:59:32 10° WNW visible
20 Feb 3.1 18:35:52 10° SE 18:40:48 55° ENE 18:45:47 10° N visible
20 Feb 5.3 20:16:01 10° SSW 20:20:09 25° W 20:24:19 10° NW visible
21 Feb 6.3 06:41:16 10° ENE 06:43:32 13° E 06:45:49 10° ESE visible
21 Feb 4.0 19:38:13 10° S 19:43:07 48° W 19:48:04 10° NNW visible
22 Feb 3.0 19:01:12 10° SSE 19:06:17 87° ENE 19:11:24 10° NNW visible
22 Feb 5.9 20:43:02 10° WSW 20:46:01 16° W 20:49:01 10° NW visible
23 Feb 5.0 20:04:24 10° SSW 20:08:50 30° W 20:13:18 10° NNW visible
24 Feb 6.7 06:31:31 10° ENE 06:32:09 10° E 06:32:46 10° E visible
24 Feb 3.6 19:26:51 10° S 19:31:52 59° W 19:36:54 10° NNW visible
